Location: Unspecified
(0.0000°N, 0.0000°E)
Time: 00:06:57
(UTC+00:00)

Hubble Space Telescope - Pass Details

Date: 30 November 2022
Orbit: 530 x 534 km, 28.5° (Epoch: 02 December)

Event Time Altitude Azimuth Distance (km) Brightness Sun altitude
Exits shadow 03:20:26 10° 156° (SSE) 1,739 3.9 -34.0°
Maximum altitude 03:20:37 10° 153° (SSE) 1,737 3.9 -34.0°
Drops below altitude 10° 03:21:24 10° 142° (SE) 1,766 4.1 -33.8°
Sets 03:25:35 0° 101° (E) 2,652 5.3 -32.9°
